D3121 Weather Reports


Display with metric or nautical units.
time (UTC)temp
F
wind
direction
speed
MPH
gust
MPH
rain 1hr
in
rain 24hr
in
rain mn
in
humidity
%
barometer
mb
20260906095317 56 0.0 0.0 0.01 0.32 0.13 95 1014.9
20260906094317 57 0 2.0 3.0 0.01 0.32 0.13 94 1014.8
20260906093317 57 0 1.0 2.0 0.01 0.32 0.13 94 1014.8
20260906092317 57 0 2.0 3.0 0.00 0.31 0.12 94 1014.8
20260906091317 57 0 3.0 4.0 0.00 0.31 0.12 92 1014.6
20260906090317 57 45 2.0 3.0 0.01 0.31 0.12 92 1014.4
20260906085317 57 68 1.0 1.0 0.01 0.31 0.12 93 1014.3
20260906084317 58 23 3.0 4.0 0.01 0.31 0.12 93 1014.4
20260906083337 58 45 2.0 3.0 0.01 0.31 0.12 93 1014.4
20260906082317 58 0.0 0.0 0.01 0.31 0.12 93 1014.4
20260906081317 58 0.0 0.0 0.01 0.31 0.12 93 1014.4
20260906080317 58 45 1.0 2.0 0.01 0.30 0.11 92 1014.3
20260906075317 58 113 1.0 2.0 0.01 0.30 0.11 92 1014.2
20260906074317 58 158 2.0 4.0 0.02 0.30 0.11 92 1014.2
20260906073337 59 23 2.0 3.0 0.04 0.30 0.11 93 1014.2
20260906072317 59 45 2.0 3.0 0.09 0.30 0.11 93 1014.3
20260906071317 59 113 4.0 5.0 0.11 0.30 0.11 93 1014.2
20260906070317 59 113 6.0 7.0 0.10 0.29 0.10 94 1014.1
20260906065317 58 68 2.0 3.0 0.10 0.29 0.10 96 1014.1
20260906064317 59 0 4.0 5.0 0.09 0.28 0.09 96 1014.3
20260906063337 59 90 2.0 3.0 0.07 0.26 0.07 96 1014.3
20260906062337 59 0.0 0.0 0.02 0.21 0.02 96 1014.2
20260906061317 59 0.0 0.0 0.00 0.19 0.00 96 1014.1
20260906060317 59 0.0 0.0 0.00 0.19 0.00 96 1014.0
20260906055317 59 0.0 0.0 0.00 0.19 0.00 96 1014.1
20260906054317 59 0.0 0.0 0.00 0.19 0.00 96 1014.1
20260906053317 59 0.0 0.0 0.00 0.19 0.00 96 1014.2
20260906052337 59 0.0 1.0 0.00 0.19 0.00 96 1014.1
20260906051317 59 0.0 0.0 0.00 0.19 0.00 96 1014.1
20260906050337 59 0.0 0.0 0.00 0.19 0.00 96 1014.1
20260906045317 59 0.0 0.0 0.00 0.19 0.00 96 1014.2
20260906044337 59 0.0 0.0 0.00 0.19 0.00 96 1014.1
20260906043317 59 0.0 0.0 0.00 0.19 0.00 96 1014.2
20260906042336 59 23 1.0 3.0 0.00 0.19 0.00 96 1014.1
20260906041317 59 0.0 0.0 0.00 0.19 0.00 96 1014.1
20260906040317 59 0.0 0.0 0.00 0.19 0.00 96 1014.1
20260906035316 59 0.0 0.0 0.00 0.19 0.19 95 1014.0
20260906034356 59 0.0 0.0 0.00 0.19 0.19 96 1014.0
20260906033316 59 315 2.0 4.0 0.00 0.19 0.19 96 1013.9
20260906032316 59 0.0 0.0 0.00 0.19 0.19 96 1013.9
20260906031316 59 338 2.0 3.0 0.00 0.19 0.19 95 1013.6
20260906030316 60 0.0 0.0 0.00 0.19 0.19 95 1013.6
20260906025336 60 0 3.0 4.0 0.01 0.19 0.19 95 1013.7
20260906024316 59 0.0 1.0 0.01 0.19 0.19 95 1013.6
20260906023316 59 135 1.0 1.0 0.01 0.19 0.19 95 1013.6
20260906022316 59 0.0 0.0 0.02 0.19 0.19 95 1013.6
20260906021336 59 0.0 0.0 0.02 0.19 0.19 95 1013.7
20260906020316 59 0.0 0.0 0.02 0.19 0.19 95 1013.7
20260906015316 60 0.0 0.0 0.01 0.18 0.18 95 1013.7
20260906014336 60 0.0 0.0 0.01 0.18 0.18 95 1013.8
20260906013336 60 0.0 0.0 0.01 0.18 0.18 94 1013.8
20260906012316 60 0.0 0.0 0.00 0.17 0.17 95 1013.8
20260906011316 60 0.0 0.0 0.00 0.17 0.17 94 1013.8
20260906010316 60 23 2.0 3.0 0.00 0.17 0.17 94 1013.8
20260906005316 60 158 4.0 7.0 0.01 0.17 0.17 94 1013.6
20260906004316 60 113 3.0 5.0 0.01 0.17 0.17 93 1013.4
20260906003316 60 135 5.0 7.0 0.04 0.17 0.17 93 1013.4
20260906002315 60 135 5.0 7.0 0.07 0.17 0.17 93 1013.4
20260906001316 60 68 3.0 6.0 0.09 0.17 0.17 92 1013.4
20260906000316 60 158 4.0 6.0 0.15 0.17 0.17 93 1013.1
20260905235316 60 113 2.0 5.0 0.16 0.16 0.16 93 1013.0
20260905234316 60 68 3.0 7.0 0.16 0.16 0.16 92 1012.9
20260905233315 61 45 3.0 5.0 0.13 0.13 0.13 91 1012.9
20260905232316 61 45 4.0 5.0 0.10 0.10 0.10 92 1012.8
20260905231316 62 113 5.0 9.0 0.08 0.08 0.08 91 1012.5
20260905230316 63 23 2.0 4.0 0.02 0.02 0.02 88 1012.5
20260905225356 64 113 5.0 8.0 0.00 0.00 0.00 86 1012.5
20260905224356 65 158 6.0 8.0 0.00 0.00 0.00 84 1012.3
20260905223356 66 90 4.0 6.0 0.00 0.00 0.00 83 1012.0
20260905222315 67 135 8.0 9.0 0.00 0.00 0.00 81 1011.7
20260905221316 67 113 2.0 4.0 0.00 0.00 0.00 79 1011.7
20260905220315 67 113 3.0 5.0 0.00 0.00 0.00 79 1011.7
20260905215316 68 135 6.0 7.0 0.00 0.00 0.00 80 1011.6
20260905214316 68 90 3.0 5.0 0.00 0.00 0.00 79 1011.5
20260905213316 68 113 1.0 4.0 0.00 0.00 0.00 78 1011.4
20260905212316 68 135 3.0 5.0 0.00 0.00 0.00 79 1011.3
20260905211316 68 135 3.0 4.0 0.00 0.00 0.00 78 1011.2
20260905210316 68 135 3.0 5.0 0.00 0.00 0.00 79 1011.3
20260905205316 68 0.0 2.0 0.00 0.00 0.00 80 1011.2
20260905204316 68 158 1.0 4.0 0.00 0.00 0.00 79 1011.1
20260905203336 68 135 7.0 10.0 0.00 0.00 0.00 79 1011.0
20260905202316 68 45 4.0 8.0 0.00 0.00 0.00 79 1011.0
20260905201315 67 23 3.0 4.0 0.00 0.00 0.00 80 1011.1
20260905200315 67 90 4.0 6.0 0.00 0.00 0.00 80 1011.1
20260905195315 67 135 4.0 6.0 0.00 0.00 0.00 79 1010.9
20260905194316 66 135 4.0 6.0 0.00 0.00 0.00 81 1011.0
20260905193316 66 90 4.0 8.0 0.00 0.00 0.00 80 1010.9
20260905192315 66 113 5.0 8.0 0.00 0.00 0.00 81 1011.0
20260905191316 66 158 7.0 10.0 0.00 0.00 0.00 82 1011.0
20260905190316 66 113 5.0 8.0 0.00 0.00 0.00 82 1011.1
20260905185356 66 135 4.0 7.0 0.00 0.00 0.00 81 1011.1
20260905184316 67 68 3.0 5.0 0.00 0.00 0.00 80 1011.0
20260905183316 67 135 8.0 9.0 0.00 0.00 0.00 80 1010.9
20260905182315 69 113 6.0 9.0 0.00 0.00 0.00 77 1011.0
20260905181316 71 0 8.0 12.0 0.00 0.00 0.00 68 1010.8
20260905180315 70 23 4.0 9.0 0.00 0.00 0.00 68 1010.8
20260905175316 71 0 6.0 11.0 0.00 0.00 0.00 68 1010.8
20260905174315 70 0 5.0 9.0 0.00 0.00 0.00 67 1010.8
20260905173316 70 293 3.0 6.0 0.00 0.00 0.00 67 1010.8
20260905172315 70 0 7.0 11.0 0.00 0.00 0.00 66 1010.7
20260905171315 70 0 6.0 8.0 0.00 0.00 0.00 66 1010.6
20260905170316 70 23 7.0 11.0 0.00 0.00 0.00 66 1010.7
20260905165315 71 0 7.0 11.0 0.00 0.00 0.00 66 1010.8
20260905164318 70 0 5.0 8.0 0.00 0.00 0.00 65 1010.7
20260905163317 70 23 8.0 11.0 0.00 0.00 0.00 66 1010.8
20260905162318 70 0 6.0 9.0 0.00 0.00 0.00 68 1010.8
20260905161317 70 0 6.0 9.0 0.00 0.00 0.00 67 1011.0
20260905160316 70 23 6.0 9.0 0.00 0.00 0.00 68 1011.0
20260905155318 69 23 9.0 11.0 0.00 0.00 0.00 69 1010.9
20260905154315 69 23 6.0 11.0 0.00 0.00 0.00 70 1011.0
20260905153317 69 23 9.0 11.0 0.00 0.00 0.00 70 1011.0
20260905152315 69 0 8.0 13.0 0.00 0.00 0.00 70 1011.1
20260905151317 69 0 7.0 13.0 0.00 0.00 0.00 71 1011.1
20260905150317 68 0 6.0 10.0 0.00 0.00 0.00 72 1011.1
20260905145317 68 23 7.0 9.0 0.00 0.00 0.00 74 1011.2
20260905144317 67 0 4.0 10.0 0.00 0.00 0.00 74 1011.2
20260905143317 67 0 4.0 9.0 0.00 0.00 0.00 75 1011.3
20260905142317 67 23 4.0 6.0 0.00 0.00 0.00 76 1011.2
20260905141428 66 0 3.0 4.0 0.00 0.00 0.00 77 1011.0
20260905140415 67 0 8.0 12.0 0.00 0.00 0.00 77 1011.3
20260905135417 66 0 3.0 7.0 0.00 0.00 0.00 78 1011.2
20260905134417 66 23 9.0 11.0 0.00 0.00 0.00 79 1011.1
20260905133415 65 0 5.0 7.0 0.00 0.00 0.00 80 1010.9
20260905132417 65 0 6.0 11.0 0.00 0.00 0.00 82 1010.8
20260905131415 65 0 5.0 7.0 0.00 0.00 0.00 83 1010.9
20260905130437 64 23 4.0 6.0 0.00 0.00 0.00 84 1010.7
20260905125415 64 23 6.0 8.0 0.00 0.00 0.00 83 1010.8
20260905124417 65 0 6.0 8.0 0.00 0.00 0.00 84 1010.8
20260905123418 64 23 6.0 10.0 0.00 0.00 0.00 85 1010.7
20260905122417 64 0 9.0 12.0 0.00 0.00 0.00 84 1010.6
20260905121417 64 0 3.0 7.0 0.00 0.00 0.00 86 1010.5
20260905120417 64 0 4.0 7.0 0.00 0.00 0.00 86 1010.5
20260905115417 64 0 5.0 8.0 0.00 0.00 0.00 86 1010.7
20260905114417 63 315 2.0 4.0 0.00 0.00 0.00 87 1010.7
20260905113418 63 23 4.0 6.0 0.00 0.00 0.00 88 1010.5
20260905112417 62 0 2.0 3.0 0.00 0.00 0.00 90 1010.4
20260905111437 62 0.0 1.0 0.00 0.00 0.00 91 1010.4
20260905110417 61 338 1.0 2.0 0.00 0.00 0.00 91 1010.3
20260905105417 61 0.0 1.0 0.00 0.00 0.00 92 1010.3
20260905104417 61 293 2.0 3.0 0.00 0.00 0.00 92 1010.2
20260905103417 61 0.0 0.0 0.00 0.00 0.00 92 1010.2
20260905102437 61 0.0 0.0 0.00 0.00 0.00 92 1010.2
20260905101417 60 0.0 0.0 0.00 0.00 0.00 93 1010.0
20260905100417 60 0.0 0.0 0.00 0.00 0.00 94 1009.9